Flag for United Arab Emirates Weather past 2 weeks in Sharjah, Sharjah, United Arab Emirates

Now
100 °F

Passing clouds.


Feels Like: 108 °F
Forecast: 88 / 100 °F
Wind: 12 mph from Northwest

Location: Sharjah International Airport

Current Time: Sep 20, 2014 at 8:48:44 PM

Latest Report: Sep 20, 2014 at 5:00 PM


Visibility: N/A

Pressure: 29.62 "Hg

Humidity: 37%

Dew point: 70 °F

Location of SharjahLocation

Historic Weather in Sharjah — Graph

°F

Sharjah temperature yesterday

Maximum temperature yesterday: 100 °F (at 12:00 PM)
Minimum temperature yesterday: 82 °F (at 6:00 AM)
Average temperature yesterday: 92 °F

Past Weeks' High & Low Weather Summary

 TemperatureHumidityPressure
High111 °F (Sep 8, 2:00 PM)89% (Sep 7, 4:00 AM)29.80 "Hg (Sep 7, 4:00 AM)
Low81 °F (Sep 6, 7:00 AM)19% (Sep 9, 1:00 PM)29.47 "Hg (Sep 5, 5:00 PM)
Average93 °F59%29.63 "Hg
* Reported Sep 5 5:00 PM — Sep 20 5:00 PM, Sharjah, Weather by CustomWeather, © 2014

Note: Actual official high and low records may vary slightly from our data, if they occured in-between our weather recording intervals... More about our weather records

Advertising

Sharjah weather history for previous 24 hours

 ConditionsComfort  
Time TempWeatherWind HumidityBarometerVisibility
5:00 PM
Sep 20
100 °FPassing clouds.12 mph37%29.62 "HgN/A
4:00 PM100 °FPassing clouds.15 mph37%29.62 "HgN/A
3:00 PM104 °FPassing clouds.15 mph31%29.62 "HgN/A
2:00 PM102 °FPassing clouds.14 mph37%29.65 "HgN/A
1:00 PM102 °FPassing clouds.15 mph33%29.68 "HgN/A
12:00 PM102 °FPassing clouds.12 mph35%29.68 "HgN/A
11:00 AM99 °FPassing clouds.6 mph47%29.71 "HgN/A
10:00 AM97 °FSunny.2 mph56%29.74 "Hg10 mi
9:00 AM91 °FClear.7 mph67%29.74 "Hg5 mi
8:00 AM86 °FHaze.8 mph79%29.71 "Hg2 mi
7:00 AM82 °FHaze.6 mph84%29.71 "Hg1 mi
6:00 AM82 °FClear.6 mph84%29.71 "Hg4 mi
5:00 AM84 °FClear.3 mph79%29.68 "Hg5 mi
4:00 AM84 °FClear.6 mph84%29.68 "Hg5 mi
3:00 AM86 °FClear.3 mph79%29.68 "Hg5 mi
2:00 AM86 °FClear.6 mph79%29.68 "Hg5 mi
1:00 AM86 °FPassing clouds.3 mph79%29.71 "HgN/A
12:00 AM88 °FClear.3 mph70%29.71 "Hg10 mi
11:00 PM
Sep 19
88 °FClear.5 mph70%29.71 "Hg10 mi
10:00 PM93 °FClear.No wind53%29.74 "Hg10 mi
9:00 PM93 °FPassing clouds.6 mph63%29.74 "HgN/A
8:00 PM93 °FClear.6 mph63%29.71 "Hg10 mi
Weather by CustomWeather, © 2014

See weather overviewHow to use our weather pages